Skip Page Navigation
NASA JPL Caltech
NASA Logo - Jet Propulsion Laboratory + View the NASA Portal
+ Near-Earth Object (NEO) Program
Search JPL
JPL Home Earth Solar System Stars & Galaxies Technology
JPL Solar System Dynamics
BODIES ORBITS EPHEMERIDES TOOLS PHYSICAL DATA DISCOVERY FAQ SITE MAP
JPL Small-Body Database Browser
Search: [ help ]  
(2002 BM26)
Classification: Amor [NEO, PHA]          SPK-ID: 3102786
Ephemeris | Orbit Diagram | Orbital Elements | Physical Parameters | Close-Approach Data ]

[ hide orbit diagram ]
Orbit Diagram
Note: Make sure you have Java enabled on your browser to see the applet. This applet is provided as a 3D orbit visualization tool. The applet was implemented using 2-body methods, and hence should not be used for determining accurate long-term trajectories (over several years or decades) or planetary encounter circumstances. For accurate long-term ephemerides, please instead use our Horizons system.
Orbit Viewer

Additional Notes: the orbits shown in the applet are color coded. The planets are white lines, and the asteroid/comet is a blue line. The bright white line indicates the portion of the orbit that is above the ecliptic plane, and the darker portion is below the ecliptic plane. Likewise for the asteroid/comet orbit, the light blue indicates the portion above the ecliptic plane, and the dark blue the portion below the ecliptic plane.

Orbit Viewer applet originally written and kindly provided by Osamu Ajiki (AstroArts), and further modified by Ron Baalke (JPL).


Orbital Elements at Epoch 2456400.5 (2013-Apr-18.0) TDB
Reference: JPL 18 (heliocentric ecliptic J2000)
 Element Value Uncertainty (1-sigma)   Units 
e .4442887884681839 1.2176e-08  
a 1.832555693185256 7.7331e-09 AU
q 1.018371744459506 2.2064e-08 AU
i 16.21354360506055 1.1301e-05 deg
node 319.6525284310599 4.7597e-06 deg
peri 180.4290856661821 2.918e-05 deg
M 181.6599209692536 1.5896e-05 deg
tp 2456849.380411780027
(2014-Jul-10.88041178)
4.2274e-05 JED
period 906.1168365465956
2.48
5.7355e-06
1.57e-08
d
yr
n .3972997581327776 2.5148e-09 deg/d
Q 2.646739641911006 1.1169e-08 AU
  Orbit Determination Parameters
   # obs. used (total)      243  
   # delay obs. used      2  
   # Doppler obs. used      2  
   data-arc span      1829 days (5.01 yr)  
   first obs. used      2002-01-26  
   last obs. used      2007-01-29  
   planetary ephem.      DE405  
   SB-pert. ephem.      SB405-CPV-2  
   condition code      0  
   fit RMS      .51909  
   data source      ORB  
   producer      Otto Matic  
   solution date      2011-Sep-14 19:44:40  

Additional Information
 Earth MOID = .031447 AU 
 T_jup = 3.860 
[ show covariance matrix ]

Ephemeris | Orbit Diagram | Orbital Elements | Physical Parameters | Close-Approach Data ]

Physical Parameter Table
Parameter Symbol Value Units Sigma Reference Notes
absolute magnitude H 20.089 mag .74402 18 autocmod 2.5a
diameter diameter 0.84 km n/a Delbo et al. (2003). Icarus, v. 166, pp. 116-130  
rotation period rot_per 2.7 h n/a Asteroid Lightcurve DataBase (Rev. 2013-May-01) Result based on less than full coverage, so that the period may be wrong by 30 percent or so.
Published Reference List:
[Nolan, M.C.; Howell, E.S.; Magri, C.; Beeney, B.; et al. (2002) IAUC 7824. (2002 BM26)]
geometric albedo albedo 0.023   n/a Delbo et al. (2003). Icarus, v. 166, pp. 116-130 Fast Rotating thermal model gives 0.05
SMASSII spectral type spec_B X   n/a Binzel et al. (2004) Icarus 170, 259-294  

[ show close-approach data ]
Ephemeris | Orbit Diagram | Orbital Elements | Physical Parameters | Close-Approach Data ]
ABOUT SSD CREDITS/AWARDS PRIVACY/COPYRIGHT GLOSSARY LINKS
FirstGov 2013-May-22 13:50 UT
(server date/time)  
NASA Home Page
Site Manager:   Donald K. Yeomans
Webmaster  Alan B. Chamberlin